Ann Arbor, MI

11:05 AM EDT on April 26, 2017 (GMT -0400)
Ann Arbor Municipal

Weather History for KARB - July, 2013

Change the Weather History Date:

Sunday, July 7, 2013

  Actual Average Record
Temperature  
Mean Temperature 75 °F -  
Max Temperature 81 °F 79 °F 100 °F (2012)
Min Temperature 68 °F 54 °F 46 °F (2006)
Cooling Degree Days 10    
Growing Degree Days 25 (Base 50)    
Moisture  
Dew Point 68 °F    
Average Humidity 87    
Maximum Humidity 100    
Minimum Humidity 65    
Precipitation  
Precipitation 0.58 in - - ()
Sea Level Pressure  
Sea Level Pressure 30.03 in    
Wind  
Wind Speed 5 mph (SW)    
Max Wind Speed 10 mph    
Max Gust Speed -    
Visibility 7 miles    
Events Rain , Thunderstorm    
Averages and records for this station are not official NWS values.
T = Trace of Precipitation, MM = Missing Value Source: NWS Daily Summary

Daily Weather History Graph

Daily Weather History Graph

Search for Another Location

Airport or City:

Trip Planner

Search our weather history database for the weather conditions in past years. The results will help you decide how hot, cold, wet, or windy it might be!

Date:

Astronomy

Jul. 07, 2013 Rise Set
Actual Time 6:06 AM EDT 9:13 PM EDT
Civil Twilight 5:32 AM EDT 9:47 PM EDT
Nautical Twilight 4:48 AM EDT 10:31 PM EDT
Astronomical Twilight 3:56 AM EDT 11:23 PM EDT
Moon 5:42 AM EDT (7/7) 8:35 PM EDT (7/7)
Length of Visible Light 16h 15m
Length of Day
15h 07m
Waning Crescent, 0% of the Moon is Illuminated
Jul 7
Waning Crescent
Jul 8
New
Jul 15
First Quarter
Jul 22
Full
Jul 29
Last Quarter

Hourly Weather History & Observations

Time (EDT) Temp. Heat Index Dew Point Humidity Pressure Visibility Wind Dir Wind Speed Gust Speed Precip Events Conditions
12:07 AM 71.6 °F - 69.8 °F 94% 30.05 in 7.0 mi SSW 3.5 mph - N/A   Overcast
12:53 AM 71.1 °F - 70.0 °F 96% 30.03 in 6.0 mi SSW 3.5 mph - N/A   Overcast
1:53 AM 70.0 °F - 69.1 °F 97% 30.01 in 6.0 mi SSW 3.5 mph - N/A   Overcast
2:53 AM 71.1 °F - 69.1 °F 93% 30.01 in 6.0 mi SW 4.6 mph - N/A   Overcast
3:15 AM 69.8 °F - 69.8 °F 100% 30.02 in 7.0 mi SW 3.5 mph - N/A   Mostly Cloudy
3:39 AM 71.6 °F - 69.8 °F 94% 30.02 in 7.0 mi SSW 4.6 mph - N/A   Overcast
3:53 AM 71.1 °F - 69.1 °F 93% 30.00 in 7.0 mi SW 6.9 mph - N/A   Overcast
4:34 AM 71.6 °F - 69.8 °F 94% 30.02 in 8.0 mi SW 6.9 mph - N/A   Overcast
4:53 AM 70.0 °F - 69.1 °F 97% 30.01 in 9.0 mi WSW 5.8 mph - N/A   Overcast
5:07 AM 69.8 °F - 68.0 °F 94% 30.02 in 8.0 mi WSW 3.5 mph - N/A   Overcast
5:30 AM 69.8 °F - 68.0 °F 94% 30.02 in 9.0 mi SW 4.6 mph - N/A   Overcast
5:53 AM 69.1 °F - 68.0 °F 96% 30.01 in 9.0 mi WSW 4.6 mph - N/A   Overcast
6:53 AM 69.1 °F - 66.9 °F 93% 30.01 in 9.0 mi West 3.5 mph - N/A   Mostly Cloudy
7:28 AM 69.8 °F - 66.2 °F 88% 30.03 in 7.0 mi SSW 5.8 mph - N/A   Overcast
7:53 AM 70.0 °F - 68.0 °F 93% 30.03 in 6.0 mi SSW 4.6 mph - N/A   Overcast
8:03 AM 71.6 °F - 68.0 °F 88% 30.04 in 7.0 mi SSW 5.8 mph - N/A   Overcast
8:53 AM 71.1 °F - 68.0 °F 90% 30.04 in 7.0 mi WSW 5.8 mph - N/A   Overcast
9:53 AM 73.0 °F - 68.0 °F 84% 30.04 in 7.0 mi West 8.1 mph - N/A   Overcast
10:28 AM 73.4 °F - 68.0 °F 83% 30.05 in 8.0 mi WSW 9.2 mph - N/A   Overcast
10:40 AM 73.4 °F - 68.0 °F 83% 30.05 in 8.0 mi WSW 8.1 mph - N/A   Overcast
10:53 AM 73.9 °F - 68.0 °F 82% 30.04 in 8.0 mi West 8.1 mph - N/A   Overcast
11:07 AM 73.4 °F - 68.0 °F 83% 30.05 in 8.0 mi WSW 6.9 mph - N/A   Overcast
11:50 AM 71.6 °F - 68.0 °F 88% 30.05 in 1.8 mi WSW 9.2 mph - 0.05 in Rain Light Rain
11:53 AM 70.0 °F - 68.0 °F 93% 30.04 in 0.8 mi WSW 5.8 mph - 0.10 in Rain Heavy Rain
12:01 PM 71.6 °F - 69.8 °F 94% 30.05 in 1.5 mi SW 4.6 mph - 0.00 in Rain Light Rain
12:03 PM 71.6 °F - 69.8 °F 94% 30.05 in 3.0 mi SW 4.6 mph - 0.00 in Rain Light Rain
12:10 PM 73.4 °F - 69.8 °F 88% 30.05 in 5.0 mi SW 5.8 mph - 0.00 in Rain Light Rain
12:13 PM 73.4 °F - 69.8 °F 88% 30.05 in 6.0 mi WSW 5.8 mph - 0.00 in Rain Light Rain
12:53 PM 73.9 °F - 68.0 °F 82% 30.04 in 10.0 mi SW 9.2 mph - 0.00 in   Mostly Cloudy
1:53 PM 75.9 °F - 68.0 °F 76% 30.03 in 10.0 mi SW 8.1 mph - N/A   Mostly Cloudy
2:53 PM 78.1 °F - 68.0 °F 71% 30.01 in 10.0 mi SW 9.2 mph - N/A   Clear
3:53 PM 81.0 °F 83.8 °F 68.0 °F 65% 30.00 in 10.0 mi WSW 8.1 mph - N/A   Clear
4:53 PM 79.0 °F - 66.9 °F 66% 29.98 in 10.0 mi West 10.4 mph - N/A   Mostly Cloudy
5:53 PM 79.0 °F - 68.0 °F 69% 29.97 in 10.0 mi WSW 10.4 mph - N/A   Partly Cloudy
6:53 PM 80.1 °F 82.9 °F 69.1 °F 69% 29.97 in 10.0 mi SW 4.6 mph - N/A   Mostly Cloudy
7:53 PM 75.0 °F - 68.0 °F 79% 29.98 in 10.0 mi SW 9.2 mph - N/A   Mostly Cloudy
8:53 PM 73.0 °F - 68.0 °F 84% 30.01 in 9.0 mi WSW 5.8 mph - 0.00 in Rain Light Rain
9:53 PM 69.1 °F - 64.9 °F 87% 30.01 in 10.0 mi SW 6.9 mph - 0.02 in   Overcast
10:42 PM 69.8 °F - 68.0 °F 94% 30.05 in 1.8 mi West 4.6 mph - 0.12 in Rain Heavy Rain
10:44 PM 69.8 °F - 68.0 °F 94% 30.04 in 0.8 mi Variable 4.6 mph - 0.28 in Rain , Thunderstorm Heavy Thunderstorms and Rain
10:53 PM 69.1 °F - 66.0 °F 90% 30.03 in 0.8 mi Calm Calm - 0.46 in Rain , Thunderstorm Thunderstorms and Rain
10:55 PM 69.8 °F - 66.2 °F 88% 30.04 in 1.5 mi Variable 5.8 mph - 0.00 in Rain , Thunderstorm Light Thunderstorms and Rain
10:57 PM 69.8 °F - 66.2 °F 88% 30.04 in 3.0 mi SW 6.9 mph - 0.00 in Rain , Thunderstorm Light Thunderstorms and Rain
11:22 PM 69.8 °F - 66.2 °F 88% 30.04 in 8.0 mi SW 5.8 mph - 0.00 in   Partly Cloudy
11:53 PM 68.0 °F - 66.0 °F 93% 30.04 in 8.0 mi SW 5.8 mph - 0.00 in   Clear